Wind_Speed
12 13 13 13 15 16 16 16 16 16 16 17 19 20 19 18 17 12 2 11 10 9 19 12 9 11 13 12 9 16 7 7 9 10 11 12 13 15 10 11 3 6 3 10 11 17 17 20 8 6 7 6 7 6
11 12 13 13 14 16 16 16 15 16 16 17 18 19 20 18 16 14 8 10 11 13 17 20 19 17 14 11 10 12 14 8 7 6 4 6 12 12 12 8 4 7 5 6 10 1 4 11 9 10 9 5 3 5
12 12 12 13 14 16 16 17 17 17 17 17 18 19 19 19 16 15 11 9 16 13 22 19 14 10 7 12 12 13 14 10 5 7 9 6 10 8 9 8 11 9 11 8 6 3 9 7 8 6 6 5 3 7
11 12 12 13 15 15 16 16 17 17 18 19 20 20 19 18 16 14 11 6 11 12 7 3 1 8 7 8 12 13 16 13 10 10 14 9 10 12 11 12 12 11 4 6 7 9 14 5 6 2 4 5 7 10
11 12 12 14 15 15 16 17 18 18 19 20 21 21 19 17 15 13 9 3 6 6 7 17 21 14 13 7 10 11 12 12 12 13 8 8 14 13 13 13 9 12 9 6 7 7 5 4 8 6 7 8 9 13
14 14 14 15 16 16 17 19 20 20 20 22 22 21 17 14 12 8 2 3 4 7 7 4 11 6 6 7 9 10 11 11 12 13 10 12 17 10 7 11 16 13 20 17 15 7 5 6 11 10 12 11 9 10
14 15 15 16 16 16 17 19 21 21 22 22 22 18 12 11 7 4 3 4 10 7 5 7 6 10 3 8 11 12 13 12 11 14 13 15 17 6 8 11 17 20 22 10 4 4 9 15 13 12 13 13 13 11
15 16 15 16 16 17 19 19 19 20 21 19 17 12 8 4 2 3 2 6 7 5 7 4 6 8 3 7 8 11 14 15 14 15 13 12 18 16 10 13 13 16 20 12 5 5 11 17 18 16 14 11 11 11
15 15 13 15 15 16 17 18 19 19 18 14 9 4 2 3 2 3 7 14 10 6 6 5 6 6 2 8 11 7 9 7 11 10 14 10 10 8 10 14 14 13 14 14 1 9 17 21 21 18 15 12 11 8
15 15 13 14 14 16 17 18 18 18 14 8 8 2 1 1 7 11 3 2 4 5 7 9 11 9 14 11 7 7 7 5 7 9 8 7 11 20 21 19 14 8 7 7 9 12 21 19 19 18 16 12 7 8
15 15 14 13 14 15 16 17 18 19 11 9 5 4 8 10 4 3 3 5 6 4 4 6 12 9 10 7 4 5 2 2 5 4 3 4 11 12 18 3 5 3 8 10 13 20 23 22 19 17 13 9 6 6
16 15 14 13 13 13 14 15 15 16 11 12 9 9 5 2 3 4 3 4 2 1 3 5 7 10 10 5 1 3 2 5 3 4 4 5 3 10 12 17 9 7 9 7 10 15 8 12 20 18 11 9 6 5
16 16 14 13 12 11 11 13 13 15 12 3 5 3 3 4 2 3 3 1 1 5 4 5 7 5 5 2 2 3 3 4 7 3 2 4 4 3 4 8 1 2 6 14 8 15 13 19 6 17 8 4 4 3
12 12 12 11 10 10 10 10 12 11 3 4 4 3 4 3 2 3 2 1 2 9 11 7 6 4 4 2 4 4 4 2 3 3 1 2 3 2 4 3 12 14 14 17 15 19 17 12 9 13 9 2 1 2
10 10 10 10 9 7 7 9 10 5 3 4 4 3 6 7 9 8 2 6 6 8 8 4 4 4 3 4 3 3 2 4 2 3 1 5 4 3 5 9 13 12 11 10 10 11 13 9 7 2 4 0 4 4
9 8 5 8 5 6 8 8 5 2 4 4 6 7 9 8 4 5 5 2 6 6 6 3 3 3 3 3 3 2 4 2 2 5 19 4 10 4 4 5 6 8 10 10 10 6 4 3 4 4 6 7 7 6
6 3 9 11 9 7 7 1 2 4 5 5 7 13 13 10 7 5 6 3 11 6 3 2 4 2 3 3 2 2 3 3 25 9 8 12 3 7 4 2 2 5 5 5 6 7 5 8 5 14 9 7 6 8
3 10 12 12 8 4 4 2 4 5 6 10 10 13 11 7 6 8 7 3 7 8 8 2 6 5 4 6 4 10 13 4 2 8 1 2 4 0 5 4 5 6 5 5 7 9 10 10 9 9 8 6 7 9
12 13 11 9 6 3 3 5 5 5 8 12 12 12 10 10 9 9 10 9 10 8 6 5 4 2 3 4 4 16 12 12 5 5 6 6 5 1 5 7 7 5 6 7 9 9 8 7 7 8 7 7 6 6
12 11 8 6 4 1 4 4 5 6 6 7 10 11 11 11 9 10 10 9 8 4 2 3 6 7 1 16 10 10 10 8 13 5 3 10 5 4 6 6 7 6 6 6 6 8 7 8 8 3 2 3 5 8
5 4 4 3 3 5 5 5 8 8 10 8 10 8 9 10 12 10 7 10 11 11 12 14 11 3 5 7 4 5 3 7 7 4 7 5 8 4 5 4 5 3 4 6 8 7 8 8 8 9 5 4 4 9
4 4 2 2 4 4 6 8 8 9 7 11 14 10 10 4 6 9 15 17 15 8 12 3 2 6 6 6 3 2 2 3 3 4 4 4 3 7 3 5 0 3 4 4 7 5 3 1 2 2 7 8 7 6
5 4 3 4 4 4 7 6 4 6 5 4 9 6 4 3 6 11 4 10 14 8 3 6 7 6 5 5 4 3 1 1 2 3 2 2 2 3 3 4 3 4 7 6 3 2 2 5 5 6 9 7 6 5
8 2 3 4 8 5 4 5 4 6 7 9 6 3 3 5 6 3 5 11 3 9 7 5 5 8 6 7 8 4 1 6 5 3 2 4 2 4 3 4 4 5 5 7 4 4 7 8 4 4 6 6 7 8
4 5 5 6 5 4 4 4 10 6 4 8 6 3 5 5 4 5 6 10 17 6 10 5 9 11 10 7 12 7 2 7 2 5 3 1 2 4 2 6 4 6 5 5 10 6 7 8 5 6 6 3 4 7
4 7 7 6 5 6 5 4 4 6 10 9 5 5 4 3 4 3 2 2 3 6 5 6 9 10 8 7 6 7 4 4 1 7 8 6 4 5 2 4 3 4 5 8 5 6 6 7 6 2 3 6 6 8
4 6 9 11 5 4 5 9 11 6 3 4 2 2 3 4 3 2 6 6 3 1 2 4 9 10 8 7 5 4 4 6 5 4 3 1 2 2 2 2 4 4 2 3 6 6 4 4 4 4 5 1 2 5
7 5 10 12 11 11 10 7 3 5 5 6 4 3 2 3 0 6 4 5 2 2 1 4 7 10 9 10 9 8 8 5 4 6 5 2 6 6 5 3 6 3 5 3 2 3 4 5 6 6 5 5 7 9
9 8 9 11 8 5 9 12 16 7 4 4 3 3 1 4 4 1 2 3 4 5 6 5 6 7 10 10 10 10 9 10 8 10 6 10 8 8 6 4 3 3 4 3 8 5 5 6 6 6 6 6 9 14
12 13 10 9 11 7 15 12 14 17 16 13 13 10 8 11 11 12 12 9 11 10 9 7 8 8 12 12 13 13 12 11 10 10 5 4 5 6 7 13 12 6 5 9 8 10 10 8 6 8 9 11 11 14
6 10 12 15 16 17 18 15 14 16 17 17 16 17 17 14 13 13 13 14 15 14 13 12 14 14 9 11 10 15 15 15 13 12 6 4 1 8 8 6 4 5 8 6 5 10 15 11 10 11 11 9 10 9
12 13 14 11 15 16 15 16 17 18 17 18 20 19 19 19 20 18 17 17 17 18 17 17 18 15 14 15 11 13 18 16 5 11 10 6 7 4 5 5 7 7 8 7 8 8 8 12 11 9 10 9 10 11
14 16 15 15 15 12 13 14 12 13 17 19 19 19 18 18 18 15 11 12 13 13 13 13 15 15 15 14 14 10 8 11 12 11 9 10 6 6 9 4 3 9 9 8 9 10 10 11 12 11 9 9 10 10
Wind_Direction
321 326 330 337 342 344 346 349 350 350 353 357 2 3 2 1 0 9 288 340 352 303 293 303 311 305 313 293 298 358 290 240 258 249 249 265 269 275 280 299 53 13 302 302 303 257 226 10 0 13 355 348 2 359
317 321 326 331 337 340 342 342 342 343 343 345 351 355 359 357 354 352 334 319 322 292 266 296 285 272 263 272 309 310 324 313 358 312 317 291 277 284 295 286 253 178 195 182 244 75 136 34 22 360 339 345 10 95
313 315 319 327 333 337 339 340 338 334 334 335 337 341 345 349 346 340 342 355 330 301 297 269 260 221 252 251 249 275 280 353 322 354 310 303 314 329 307 296 324 292 297 243 289 15 61 32 10 339 323 320 166 146
314 316 318 322 327 332 335 336 336 334 331 330 330 331 332 334 336 329 321 320 330 309 278 314 226 275 269 253 247 249 266 282 287 296 292 292 289 297 289 288 288 301 347 359 332 311 286 273 302 357 33 91 90 103
307 316 320 320 321 324 330 333 331 330 330 329 327 326 324 324 326 321 308 349 314 340 312 304 306 282 273 267 250 255 256 259 264 266 254 256 266 279 285 290 282 278 289 289 307 310 316 40 124 127 121 110 111 107
301 306 312 315 318 320 324 328 330 328 324 323 320 319 317 317 324 341 210 154 247 346 305 296 308 263 264 265 267 256 252 252 253 263 263 267 267 276 267 265 279 275 279 279 296 65 71 149 153 152 145 141 134 128
297 298 303 309 314 315 319 322 325 326 325 323 323 318 309 310 302 257 328 274 309 324 266 284 281 175 242 278 261 250 242 244 257 263 258 259 263 263 255 258 281 288 294 309 254 95 134 144 162 159 149 138 134 128
293 291 300 307 309 313 318 323 327 328 328 328 328 327 320 306 273 302 287 328 320 291 262 274 275 268 109 300 253 244 242 238 229 246 258 264 266 244 244 260 274 280 278 274 157 257 252 168 154 139 139 154 153 155
289 295 296 306 312 315 321 327 331 334 337 340 340 351 29 27 304 264 290 300 286 247 296 272 289 315 321 288 295 336 300 265 259 252 237 231 247 237 249 248 237 251 270 269 200 254 162 151 149 156 164 174 182 165
288 291 290 292 308 317 323 328 334 341 347 2 354 278 302 319 303 304 305 202 204 224 232 269 286 304 328 299 26 346 359 308 303 262 283 251 245 250 244 250 233 211 226 247 261 166 148 156 156 166 182 186 176 156
283 289 289 291 297 308 319 327 337 344 0 3 329 332 299 302 301 239 263 215 197 229 242 293 336 326 326 324 357 148 163 339 323 348 322 316 256 31 13 8 120 231 243 234 241 189 163 172 157 167 136 135 151 165
286 286 288 287 294 300 313 325 334 347 343 323 305 297 317 264 270 251 253 271 126 202 280 346 323 316 298 284 313 287 249 215 232 29 82 336 353 33 39 301 311 273 233 212 148 140 165 173 152 130 147 153 170 170
290 285 286 290 284 291 308 320 330 336 341 330 353 270 274 243 357 252 354 59 312 308 316 328 321 296 278 314 266 250 257 246 300 232 235 53 24 350 356 287 269 124 122 95 66 141 181 110 73 112 129 132 160 171
300 297 297 292 279 285 304 313 324 338 346 250 233 285 245 237 241 225 278 236 318 359 327 307 279 252 271 307 221 225 218 216 253 243 11 192 240 35 1 286 107 99 108 136 164 106 77 91 84 84 74 73 313 248
299 303 302 301 282 284 300 312 320 323 287 271 244 241 234 229 237 214 288 32 334 304 297 325 253 237 259 265 208 290 252 254 290 359 80 169 193 202 224 109 109 107 109 112 108 109 152 190 228 186 139 34 239 239
296 305 306 323 303 305 312 318 300 217 256 253 251 265 267 282 13 332 93 320 296 279 334 358 299 260 228 232 236 248 315 275 318 42 28 176 147 157 163 151 149 141 131 124 119 120 100 71 122 103 227 196 235 229
287 280 293 312 310 307 317 128 217 238 244 231 244 236 266 272 271 265 224 258 293 340 331 42 301 310 267 251 287 13 345 22 18 354 39 14 44 149 139 329 219 166 164 204 240 201 304 275 251 236 231 208 242 240
226 276 285 309 315 341 285 240 246 247 247 246 255 256 248 254 264 259 260 241 293 297 320 89 299 302 310 330 357 333 322 183 278 238 206 185 209 152 197 228 265 280 243 230 231 209 203 212 220 235 228 220 252 263
199 230 272 304 309 311 245 220 230 262 251 263 260 267 284 279 281 285 284 273 262 286 313 324 273 290 292 326 260 279 328 335 335 333 47 18 324 242 171 195 200 196 217 200 197 203 218 216 226 232 203 219 254 290
240 250 255 261 279 255 251 237 214 257 271 301 253 266 266 275 275 269 268 265 263 215 178 248 265 271 246 285 353 3 349 344 328 329 34 65 179 111 123 125 152 144 171 175 192 204 200 211 196 199 170 211 265 299
251 248 225 233 269 230 263 256 228 256 288 284 275 274 262 262 245 244 262 268 239 232 237 243 236 133 44 30 30 18 350 331 346 75 37 54 99 70 333 123 128 176 186 215 166 201 206 218 195 231 235 246 276 249
197 245 195 267 243 240 260 236 256 307 285 269 288 268 267 264 261 254 247 244 242 262 250 229 88 21 87 76 51 25 75 79 97 63 96 54 115 127 40 150 117 116 250 254 163 226 222 127 176 277 228 247 263 264
175 188 232 229 240 244 263 237 255 250 246 261 247 232 251 233 230 228 237 248 229 216 173 74 86 113 119 122 128 106 89 351 197 108 188 156 72 150 173 196 158 184 199 234 236 242 228 239 242 253 250 249 276 290
174 213 235 234 212 259 259 199 240 256 261 237 255 244 252 230 249 188 253 245 330 159 156 140 156 152 173 198 203 174 118 92 39 275 91 100 195 207 185 211 227 212 225 194 214 243 232 230 243 255 258 271 281 269
206 226 207 247 232 240 230 234 224 243 246 253 222 248 243 242 199 226 237 152 221 147 137 156 198 190 206 181 168 154 79 227 173 2 274 194 216 143 164 196 242 254 224 211 193 199 227 235 240 251 255 248 278 315
214 213 199 219 214 214 202 244 207 247 250 267 184 224 237 250 257 197 151 116 153 242 171 172 202 197 216 194 181 180 171 142 328 237 272 259 254 221 303 300 196 221 221 214 188 210 217 238 235 221 268 251 262 305
232 227 212 226 240 239 255 259 265 278 273 263 177 257 254 221 199 119 137 96 242 265 115 198 198 210 204 185 176 186 205 197 190 235 235 317 266 320 306 76 44 3 339 221 205 224 254 241 228 252 282 40 264 270
238 248 232 218 222 239 244 265 281 238 220 252 279 247 276 14 113 171 168 202 223 230 246 174 202 217 225 203 202 200 215 227 238 261 239 276 287 279 268 193 167 34 193 183 182 215 241 250 252 266 295 310 314 314
229 225 232 236 221 240 243 231 238 218 213 253 272 252 297 323 326 265 175 217 224 216 219 218 197 212 228 235 224 225 228 235 235 250 218 260 261 254 224 163 177 111 137 102 180 152 160 182 218 251 284 304 318 310
238 219 223 231 222 221 240 236 231 239 258 249 258 256 262 242 252 242 249 257 267 257 239 221 228 232 242 233 230 227 237 237 249 257 217 282 350 218 206 187 204 191 172 194 198 196 186 196 231 253 267 288 284 306
223 218 225 239 245 240 248 260 261 256 262 266 269 276 279 279 265 253 251 253 258 264 263 251 238 242 247 243 270 263 264 249 238 236 263 223 177 188 222 184 211 228 210 218 241 216 210 217 245 265 274 270 306 304
222 232 236 242 256 244 242 245 250 253 254 250 253 255 256 253 254 258 252 249 249 251 254 260 268 253 236 249 240 248 263 268 297 207 218 244 229 260 222 241 223 215 227 233 241 260 257 237 252 271 286 297 299 318
221 227 233 239 257 263 250 232 251 259 251 253 251 248 244 245 250 256 249 231 232 240 252 244 241 247 246 245 242 215 241 256 213 204 208 201 206 251 264 309 309 256 237 273 291 290 277 255 261 268 275 292 301 320
Height
1561 1558 1556 1553 1550 1547 1544 1541 1537 1534 1531 1528 1524 1521 1517 1513 1510 1507 1506 1506 1504 1499 1487 1486 1485 1484 1479 1474 1469 1468 1463 1460 1459 1459 1459 1454 1449 1440 1440 1440 1461 1462 1474 1477 1462 1454 1462 1458 1453 1462 1467 1462 1459 1457
1559 1557 1555 1552 1549 1547 1544 1540 1537 1534 1531 1528 1524 1521 1518 1514 1511 1508 1506 1506 1504 1502 1488 1484 1483 1482 1482 1481 1480 1474 1470 1468 1463 1461 1453 1449 1451 1442 1442 1453 1438 1464 1460 1475 1485 1456 1460 1462 1466 1468 1467 1466 1465 1464
1557 1555 1553 1551 1548 1546 1543 1539 1537 1534 1530 1527 1524 1521 1518 1514 1511 1508 1505 1503 1502 1495 1485 1479 1476 1476 1478 1478 1479 1479 1475 1473 1470 1472 1469 1460 1460 1451 1455 1449 1446 1442 1446 1452 1457 1454 1461 1467 1469 1470 1471 1469 1470 1471
1555 1554 1552 1550 1547 1544 1541 1538 1535 1532 1529 1526 1523 1519 1516 1513 1510 1507 1505 1504 1505 1500 1489 1471 1474 1476 1476 1476 1476 1476 1475 1475 1473 1473 1470 1466 1463 1458 1456 1453 1453 1451 1453 1456 1458 1459 1461 1464 1468 1471 1475 1475 1476 1478
1553 1552 1550 1548 1545 1542 1539 1536 1533 1530 1526 1523 1520 1517 1514 1511 1508 1505 1503 1504 1505 1506 1495 1482 1475 1474 1473 1474 1474 1475 1474 1474 1472 1471 1468 1466 1464 1463 1457 1454 1453 1453 1454 1459 1462 1459 1461 1466 1470 1475 1479 1483 1484 1485
1551 1550 1548 1545 1543 1540 1537 1534 1531 1527 1524 1520 1516 1513 1510 1508 1506 1504 1503 1506 1504 1503 1499 1484 1472 1471 1472 1473 1473 1473 1472 1472 1472 1469 1466 1463 1463 1464 1464 1461 1457 1457 1458 1458 1460 1461 1464 1467 1474 1478 1481 1486 1490 1493
1548 1546 1545 1543 1540 1538 1535 1531 1528 1524 1520 1516 1512 1508 1506 1505 1504 1506 1505 1504 1503 1501 1499 1486 1470 1466 1472 1472 1471 1470 1470 1470 1469 1467 1465 1464 1462 1462 1459 1463 1461 1460 1459 1459 1460 1464 1467 1470 1476 1480 1484 1488 1492 1495
1544 1543 1541 1539 1537 1535 1532 1528 1524 1520 1516 1513 1509 1505 1504 1503 1503 1503 1503 1502 1502 1501 1498 1487 1473 1468 1470 1469 1467 1466 1465 1465 1465 1465 1464 1462 1459 1457 1458 1458 1460 1461 1460 1459 1461 1465 1466 1469 1475 1481 1486 1492 1495 1497
1541 1539 1538 1537 1535 1532 1529 1526 1522 1517 1513 1510 1507 1505 1504 1503 1504 1503 1502 1501 1500 1504 1496 1480 1474 1471 1470 1468 1466 1467 1464 1459 1458 1457 1455 1457 1455 1453 1452 1454 1457 1459 1459 1459 1460 1463 1464 1469 1474 1481 1486 1493 1495 1498
1538 1536 1535 1533 1532 1530 1527 1524 1520 1516 1512 1509 1507 1506 1504 1505 1503 1502 1500 1500 1500 1498 1496 1488 1480 1474 1473 1469 1470 1474 1473 1463 1459 1451 1450 1447 1446 1448 1449 1450 1451 1454 1457 1459 1462 1463 1465 1474 1474 1479 1487 1489 1492 1495
1534 1532 1531 1530 1529 1528 1525 1522 1519 1515 1512 1510 1508 1505 1504 1503 1502 1501 1498 1497 1494 1493 1488 1485 1482 1479 1476 1475 1474 1480 1484 1482 1478 1463 1460 1460 1450 1451 1450 1450 1454 1458 1459 1460 1459 1460 1464 1467 1469 1478 1482 1488 1494 1496
1530 1528 1527 1527 1526 1525 1523 1521 1518 1516 1514 1511 1509 1506 1504 1503 1501 1499 1491 1488 1487 1490 1490 1485 1485 1483 1480 1479 1477 1475 1476 1472 1470 1465 1472 1480 1466 1460 1455 1458 1457 1459 1458 1459 1460 1460 1466 1456 1468 1475 1484 1488 1493 1496
1526 1525 1524 1523 1523 1522 1521 1520 1518 1515 1512 1511 1510 1508 1503 1499 1500 1493 1489 1490 1491 1490 1486 1487 1487 1482 1479 1477 1478 1477 1477 1474 1469 1465 1461 1467 1465 1465 1462 1461 1460 1458 1457 1456 1459 1464 1472 1469 1469 1474 1489 1488 1492 1494
1523 1522 1521 1520 1519 1519 1519 1518 1516 1514 1511 1511 1507 1508 1498 1492 1489 1486 1485 1487 1488 1488 1485 1483 1485 1485 1479 1477 1473 1475 1473 1470 1471 1462 1460 1463 1463 1459 1458 1460 1459 1461 1461 1464 1473 1470 1475 1478 1482 1476 1479 1489 1493 1495
1521 1519 1518 1517 1516 1516 1516 1516 1515 1513 1514 1508 1505 1503 1487 1485 1483 1484 1484 1486 1487 1486 1484 1483 1483 1482 1479 1476 1470 1470 1468 1465 1459 1462 1463 1464 1465 1464 1463 1462 1465 1467 1469 1470 1470 1474 1481 1483 1485 1480 1482 1486 1492 1494
1518 1517 1516 1516 1515 1515 1514 1513 1512 1514 1512 1508 1502 1492 1485 1482 1483 1484 1485 1486 1486 1483 1481 1482 1480 1478 1476 1474 1471 1472 1471 1468 1464 1463 1467 1465 1465 1468 1469 1468 1470 1471 1472 1474 1475 1477 1478 1479 1479 1480 1486 1488 1492 1492
1516 1516 1515 1514 1514 1513 1512 1512 1512 1511 1507 1502 1494 1490 1488 1484 1483 1484 1484 1485 1483 1481 1482 1481 1479 1474 1469 1469 1466 1467 1470 1473 1472 1471 1465 1467 1467 1468 1471 1475 1474 1475 1475 1475 1475 1476 1476 1480 1483 1485 1486 1488 1489 1489
1515 1514 1513 1513 1512 1511 1511 1511 1511 1507 1500 1495 1490 1482 1481 1480 1480 1482 1482 1483 1484 1480 1478 1479 1478 1473 1474 1472 1472 1472 1466 1467 1468 1471 1470 1469 1468 1465 1466 1470 1474 1473 1475 1476 1476 1476 1477 1479 1481 1482 1484 1486 1487 1486
1512 1510 1510 1511 1511 1511 1510 1508 1508 1501 1492 1487 1484 1482 1481 1481 1480 1480 1480 1480 1479 1479 1479 1480 1476 1475 1474 1470 1471 1470 1467 1466 1468 1468 1470 1472 1472 1468 1467 1468 1469 1470 1472 1473 1475 1476 1478 1478 1480 1481 1483 1484 1484 1484
1508 1508 1509 1509 1510 1510 1507 1504 1504 1499 1491 1484 1482 1480 1480 1478 1477 1477 1476 1475 1475 1477 1479 1478 1472 1470 1469 1472 1469 1468 1468 1466 1465 1464 1467 1466 1465 1471 1469 1466 1467 1470 1471 1473 1475 1476 1478 1479 1480 1481 1481 1482 1483 1482
1505 1506 1507 1507 1509 1508 1506 1499 1496 1491 1486 1484 1478 1477 1475 1474 1473 1473 1473 1474 1473 1471 1468 1467 1468 1469 1469 1469 1468 1468 1468 1468 1466 1465 1465 1467 1468 1470 1468 1468 1468 1470 1471 1472 1475 1476 1477 1478 1478 1479 1480 1480 1481 1480
1504 1505 1507 1507 1507 1505 1502 1497 1493 1490 1488 1481 1478 1475 1473 1470 1472 1471 1470 1471 1467 1465 1465 1464 1467 1467 1468 1469 1470 1470 1469 1469 1468 1467 1467 1467 1467 1469 1468 1469 1469 1471 1472 1473 1474 1475 1476 1477 1477 1477 1477 1477 1478 1477
1503 1505 1506 1505 1505 1501 1497 1493 1493 1487 1481 1474 1471 1469 1468 1467 1468 1467 1464 1463 1461 1461 1463 1464 1466 1468 1470 1471 1471 1470 1470 1469 1468 1468 1468 1468 1469 1469 1469 1470 1471 1471 1473 1474 1474 1474 1475 1475 1475 1475 1475 1476 1475 1475
1503 1503 1503 1501 1500 1496 1490 1489 1490 1483 1477 1472 1467 1466 1467 1465 1463 1463 1460 1457 1459 1459 1461 1463 1466 1467 1469 1470 1470 1469 1469 1468 1470 1467 1467 1469 1468 1467 1468 1469 1469 1469 1470 1471 1472 1472 1473 1473 1474 1473 1473 1473 1472 1472
1503 1501 1501 1497 1494 1492 1487 1483 1480 1478 1474 1470 1467 1468 1462 1461 1460 1458 1452 1454 1457 1456 1459 1462 1463 1463 1462 1462 1465 1467 1467 1467 1468 1467 1466 1466 1465 1467 1467 1466 1466 1467 1467 1467 1469 1470 1471 1471 1471 1471 1471 1470 1470 1470
1497 1493 1492 1486 1484 1483 1479 1474 1470 1470 1466 1464 1462 1463 1461 1459 1455 1452 1453 1452 1454 1455 1455 1458 1460 1460 1460 1461 1462 1464 1465 1466 1467 1466 1465 1464 1464 1463 1463 1463 1464 1465 1465 1465 1467 1468 1468 1469 1468 1469 1469 1469 1470 1470
1491 1484 1483 1482 1481 1481 1479 1474 1471 1471 1468 1462 1456 1459 1456 1454 1448 1451 1451 1453 1455 1454 1455 1457 1458 1458 1458 1459 1462 1463 1464 1464 1465 1464 1463 1463 1462 1462 1462 1462 1463 1464 1464 1464 1465 1466 1466 1466 1467 1467 1467 1467 1467 1467
1482 1479 1478 1478 1479 1477 1476 1476 1472 1465 1464 1461 1458 1455 1453 1451 1453 1451 1452 1453 1453 1454 1454 1455 1457 1457 1456 1457 1458 1460 1461 1461 1462 1461 1460 1462 1462 1461 1461 1460 1460 1461 1461 1463 1464 1465 1466 1467 1467 1466 1466 1465 1465 1464
1477 1475 1475 1474 1475 1475 1473 1471 1467 1458 1458 1457 1457 1457 1456 1454 1452 1451 1452 1452 1452 1452 1453 1453 1453 1455 1455 1455 1456 1457 1459 1458 1458 1457 1458 1458 1458 1459 1461 1461 1461 1462 1462 1463 1465 1465 1466 1466 1466 1466 1466 1466 1465 1463
1471 1471 1471 1470 1469 1471 1466 1460 1458 1457 1455 1454 1452 1452 1452 1453 1453 1452 1452 1451 1450 1449 1449 1450 1451 1451 1451 1451 1451 1452 1452 1453 1453 1452 1453 1455 1457 1456 1456 1457 1459 1459 1460 1461 1462 1463 1464 1464 1465 1464 1464 1463 1462 1462
1465 1465 1466 1465 1462 1460 1458 1456 1454 1453 1453 1451 1450 1449 1447 1447 1446 1447 1447 1447 1447 1446 1445 1446 1447 1447 1448 1447 1449 1449 1448 1447 1447 1449 1451 1452 1451 1454 1454 1455 1456 1457 1457 1458 1458 1458 1459 1460 1461 1461 1460 1461 1460 1459
1462 1462 1460 1457 1456 1454 1452 1451 1450 1448 1447 1446 1445 1445 1444 1444 1442 1442 1442 1442 1442 1442 1442 1441 1440 1440 1442 1442 1443 1444 1446 1444 1444 1446 1449 1450 1451 1452 1452 1452 1453 1454 1454 1454 1455 1457 1457 1457 1456 1457 1456 1457 1457 1456
1457 1456 1455 1455 1452 1447 1442 1444 1442 1441 1439 1437 1435 1434 1434 1433 1432 1433 1432 1433 1434 1433 1433 1434 1435 1435 1436 1437 1437 1438 1440 1439 1440 1442 1445 1447 1449 1450 1452 1452 1453 1454 1454 1453 1453 1452 1452 1452 1453 1453 1454 1454 1454 1454